Starlink 1191

operational
NORAD ID: 45222 Int'l Des: 2020-012 Owner: SPXS Country: US Constellation: starlink
LEOCIRCULARSTARLINK_TYPE

Starlink 1191について

説明を読み込み中...

リアルタイム位置

3D地球を読み込み中...

次回通過

高度履歴

Altitude vs Time

uPlot chart will show altitude changes over time

軌道要素

1 45222U 20012AW 25306.47556557 .00014046 00000-0 96012-3 0 9996
2 45222 53.0536 217.7048 0001422 87.9147 272.2005 15.06394814316226
Epoch: Nov 2, 2025 • Age: 23 hours

現在のステータス

高度 553.5 km
速度 7.58 km/s
衛星直下点 -21.14°S, 152.05°W
打ち上げ日 Feb 17, 2020
運用期間 5.7 years
タイプ internet

技術仕様

分類 Payload
質量 260.00 kg
乾燥質量 248.00 kg
総質量 260.00 kg
長さ 0.20 m
直径 2.80 m
スパン 9.00 m
形状 Box + pan
製造者 SPXS
バスタイプ Starlink
フェーズステータス In Orbit
所有者/国 SPXS/US

大規模コンステレーション

Loading constellations...